Dusheti

Georgia     42˚05′08″N   44˚41′29″E
temp.,
°C
wind,
m/s
gust,
m/s
humid.,
%
clouds,
%
prec.,
mm/h
давл.,
hPa
HPBL,
m
27 november, fri
fri2701:00−2˚nnw225883 0.2 102773
04:00−2˚n225784 0.7 102895
07:00−3˚n125061 0.1 102940
10:00n113936 0.1 1030222
13:00+3˚sw11406 0.0 1029430
16:00+4˚ssw11403 0.0 1029338
19:00ene33610 0.0 103129
22:00−1˚ne33670 0.0 103354
28 november, sat
sat2801:00−1˚ne336821 0.0 103361
04:00−2˚ne236737 0.0 103247
07:00−2˚ne236212 0.0 103142
10:00+1˚e12567 0.0 1030180
13:00+5˚sse22540 0.0 1027552
16:00+5˚s33580 0.0 1026314
19:00+1˚e227145 0.0 102825
22:00−1˚ene225750 0.0 102827
29 november, sun
sun2901:00−1˚ne225361 0.0 102831
04:00−1˚ne225261 0.0 102826
07:00−1˚ne22510 0.0 102725
10:00+2˚ne12439 0.0 1026112
13:00+6˚sse1241100 0.0 1024377
16:00+5˚s1256100 0.0 1022117
19:00+3˚e1266100 0.0 102422
22:00+3˚ene1166100 0.0 102522
30 november, mon
mon3001:00+2˚se1178100 0.0 102422
04:00+2˚ene1175100 0.0 102323
07:00+3˚ene1274100 0.0 102322
10:00+4˚e1176100 0.0 1023108
13:00+6˚sse227498 0.0 1021542
16:00+6˚sse237399 0.0 1020434
19:00+4˚se2286100 0.0 102238
22:00+4˚e2283100 0.0 1022139
1 december, tue
tue101:00+3˚ene2291100 0.1 1023192
04:00+3˚ene2296100 0.8 1023111
07:00+3˚ene1295100 0.5 1023116
10:00+3˚sse1394100 0.8 1023244
13:00+3˚sse228797 0.2 1022316
16:00+4˚se227791 0.3 1021519
19:00+2˚ese129282 0.0 102323
22:00+2˚e128891 0.0 102448